[ hide orbit diagram ]
For accurate long-term ephemerides, please instead use our Horizons system.This orbit viewer was implemented using two-body methods, and hence should not be used for determining accurate long-term trajectories (over several years or decades) or planetary encounter circumstances.
Orbital Elements at Epoch 2459000.5 (2020-May-31.0) TDB
Reference: JPL 4 (heliocentric ecliptic J2000)
Element | Value | Uncertainty (1-sigma) | Units |
e | .9951071717233291 | 0.00020682 | |
a | 547.9682708434733 | 23.197 | au |
q | 2.681114650301418 | 0.00018621 | au |
i | 58.31231805165876 | 0.0050096 | deg |
node | 170.5001608595329 | 0.00021353 | deg |
peri | 212.2211703969212 | 0.0057574 | deg |
M | .4889468603422418 | 0.031048 | deg |
tp | 2452637.078278739634 (2002-Dec-28.57827874) | 0.01087 | TDB |
period | 4685236.792501844 12827.48 | 2.9751e+05 814.5 | d yr |
n | 7.683709830336357E-5 | 4.8791e-06 | deg/d |
Q | 1093.255427036645 | 46.281 | au |
|
| | Orbit Determination Parameters
Additional Information
|
[ show covariance matrix ]
Physical Parameter Table
Parameter |
Symbol |
Value |
Units |
Sigma |
Reference |
Notes |
absolute magnitude |
H |
15.3 |
|
n/a |
MPO104218 |
|
|
|